Flag for India

Past Weather in Vasai-Virar, Maharashtra, India — Yesterday and Last 2 Weeks

Now
90 °F

Scattered clouds.


Feels Like: 105 °F
Forecast: 93 / 78 °F
Wind: 10 mph from West

Location: Mumbai / Santacruz
Current Time: Oct 25, 2020 at 3:47:25 pm
Latest Report: Oct 25, 2020 at 3:00 pm
Visibility: 2 mi
Pressure29.77 "Hg
Humidity: 71%
Dew Point: 79 °F
Location of Vasai-VirarLocation

Past Weather in Vasai-Virar — Graph

°F

Vasai-Virar Temperature Yesterday

Maximum temperature yesterday: 90 °F (at 11:30 am)
Minimum temperature yesterday: 82 °F (at 3:30 am)
Average temperature yesterday: 85 °F

High & Low Weather Summary for the Past Weeks

 TemperatureHumidityPressure
High91 °F (Oct 13, 11:00 am)100% (Oct 14, 1:00 am)29.89 "Hg (Oct 14, 1:00 am)
Low77 °F (Oct 15, 1:30 am)59% (Oct 16, 11:30 am)29.47 "Hg (Oct 15, 3:00 pm)
Average84 °F84%29.69 "Hg
* Reported Oct 10 2:30 pm — Oct 25 2:30 pm, Vasai-Virar. Weather by CustomWeather, © 2020

Note: Actual official high and low records may vary slightly from our data, if they occured in-between our weather recording intervals... More about our weather records

Vasai-Virar Weather History for the Previous 24 Hours

Scroll right to see more
 ConditionsComfort  
Time TempWeatherWind HumidityBarometerVisibility
2:30 pm
Sun, Oct 25
90 °FScattered clouds.10 mph71%29.77 "Hg2 mi
2:00 pm90 °FScattered clouds.10 mph75%29.80 "Hg2 mi
1:30 pm90 °FScattered clouds.12 mph71%29.80 "Hg2 mi
1:00 pm90 °FScattered clouds.12 mph71%29.80 "Hg1 mi
12:30 pm88 °FScattered clouds.8 mph75%29.83 "Hg1 mi
12:00 pm90 °FScattered clouds.5 mph59%29.83 "Hg2 mi
11:30 am91 °FScattered clouds.7 mph63%29.86 "Hg1 mi
11:00 am90 °FScattered clouds.6 mph67%29.86 "Hg1 mi
10:30 am90 °FScattered clouds.6 mph67%29.89 "Hg1 mi
10:00 am88 °FScattered clouds.No wind75%29.89 "Hg1 mi
9:30 am86 °FScattered clouds.No wind84%29.89 "Hg1 mi
9:00 am86 °FScattered clouds.No wind84%29.89 "Hg1 mi
8:30 am82 °FScattered clouds.5 mph89%29.89 "Hg1 mi
8:00 am82 °FScattered clouds.5 mph94%29.86 "Hg1 mi
7:30 am82 °FScattered clouds.3 mph89%29.86 "Hg1 mi
7:00 am81 °FPassing clouds.No wind94%29.83 "Hg1 mi
6:30 am81 °FPassing clouds.No wind94%29.83 "Hg1 mi
6:00 am82 °FPassing clouds.No wind89%29.83 "Hg2 mi
5:00 am81 °FPassing clouds.5 mph94%29.80 "Hg2 mi
4:30 am82 °FPassing clouds.No wind94%29.80 "Hg2 mi
4:00 am82 °FPassing clouds.3 mph94%29.80 "Hg2 mi
3:30 am82 °FPassing clouds.No wind94%29.80 "Hg2 mi
3:00 am82 °FPassing clouds.No wind94%29.80 "Hg2 mi
2:30 am82 °FPassing clouds.5 mph94%29.80 "Hg2 mi
2:00 am82 °FPassing clouds.3 mph94%29.80 "Hg2 mi
1:30 am82 °FPassing clouds.3 mph94%29.83 "Hg2 mi
1:00 am82 °FPassing clouds.5 mph94%29.83 "Hg2 mi
12:30 am84 °FPassing clouds.5 mph89%29.83 "Hg2 mi
12:00 am84 °FPassing clouds.6 mph89%29.83 "Hg2 mi
11:30 pm
Sat, Oct 24
84 °FPartly cloudy.5 mph89%29.83 "Hg2 mi
11:00 pm84 °FPartly cloudy.5 mph89%29.83 "Hg2 mi
10:30 pm84 °FPartly cloudy.5 mph89%29.83 "Hg2 mi
10:00 pm84 °FPartly cloudy.3 mph89%29.83 "Hg2 mi
9:30 pm84 °FPartly cloudy.5 mph89%29.83 "Hg2 mi
9:00 pm84 °FPartly cloudy.3 mph89%29.83 "Hg2 mi
8:30 pm84 °FPartly cloudy.5 mph89%29.80 "Hg2 mi
8:00 pm84 °FPartly cloudy.6 mph89%29.80 "Hg2 mi
7:30 pm86 °FPartly cloudy.7 mph84%29.77 "Hg2 mi
7:00 pm86 °FPartly cloudy.6 mph84%29.77 "Hg2 mi
6:30 pm86 °FBroken clouds.7 mph84%29.77 "Hg2 mi
6:00 pm86 °FBroken clouds.9 mph84%29.74 "Hg2 mi
5:30 pm86 °FBroken clouds.8 mph84%29.74 "Hg2 mi
5:00 pm86 °FBroken clouds.7 mph79%29.74 "Hg2 mi
4:30 pm86 °FBroken clouds.9 mph79%29.74 "Hg2 mi
4:00 pm86 °FBroken clouds.8 mph79%29.74 "Hg1 mi
3:30 pm86 °FBroken clouds.10 mph79%29.71 "Hg1 mi
3:00 pm86 °FBroken clouds.9 mph75%29.74 "Hg1 mi
Weather by CustomWeather, © 2020

See weather overview